Terminal Aerodrome Forecast
Issued by NWS King Salmon, AK

Home | Current Version | Previous Version | Text Only | Print | Product List | Glossary On
Versions: 1 2 3 4 5 6 7 8 9 10 11 12 13 14 15 16 17 18 19 20 21 22 23 24 25 26 27 28
069
FTAK31 PANC 141130
TAFAKN
TAF
PAKN 141130Z 1412/1512 02010KT P6SM OVC060
     FM142200 VRB04KT 5SM -RA BKN010 OVC020
     FM150300 18005KT 5SM -SNRA BKN008 OVC015=

USA.gov is the U.S. government's official web portal to all federal, state and local government web resources and services.